www.pogodaiklimat.ru

Погода и климат >> Архив погоды >> Саудовская Аравия >> Madinah


ПОГОДА в Madinah

  • Прогноз погоды в Madinah
  • Монитор погоды в Madinah
  • Климат города

АРХИВ ПОГОДЫ в Madinah

Время (UTC), дата Ветер
(напр.,м/с)
 
Видим.   Явления Облачность Т
(С)
Тd
(С)
f
(%)
Тe
(С)
Тes
(С)
Комфортность P
(гПа)
Po
(гПа)
Тmin
(С)
Tmax
(С)
R
(мм)
R24
(мм)
S
(см)
09 11.08 ЮВ 4 10 км ясно +44.2 -18.0 2 +39 +54 опасность
солнечного
удара
997.8 932.1
12 11.08 Ю 2 10 км 3/3 1350 м
[Sc]
+45.3 -17.0 2 +41 +50 опасность
перегрева
995.9 930.1
15 11.08 ЮЗ 2 10 км 4/4 1350 м
[Sc]
+45.0 -14.0 2 +40 +41 очень
жарко
995.6 929.3
18 11.08 С 3 10 км 6/6 1350 м
[Sc]
+44.0 -7.0 4 +40 +40 очень
жарко
996.6 930.8 +46.0
21 11.08 С 3 10 км 4/4 1350 м
[Sc]
+41.9 +2.0 9 +38 +38 очень
жарко
997.9 932.3
00 12.08 В 2 10 км 3/3 1350 м
[Sc]
+39.6 -4.0 6 +35 +35 очень
жарко
997.2 931.6
03 12.08 штиль 0 10 км ясно +35.7 -6.0 7 +31 +31 жарко 997.7 931.7
06 12.08 штиль 0 10 км 3/0
[Ac trans]
+40.2 -7.0 5 +36 +47 очень
жарко
998.7 932.9 +35.5
09 12.08 Ю 3 10 км 4/0
[Ac trans]
+44.7 -15.0 2 +40 +53 опасность
солнечного
удара
997.5 932.0
12 12.08 В 8 10 км 8/4 1350 м
[Cu hum Ac trans]
+45.6 -17.0 2 +41 +42 опасность
перегрева
995.7 930.2
15 12.08 В 8 10 км 8/4 1350 м
[Sc Ac trans]
+45.0 -17.0 2 +40 +40 очень
жарко
995.5 929.6
18 12.08 З 8 10 км 6/3 1350 м
[Sc Ac trans]
+40.8 -8.0 4 +40 +40 очень
жарко
997.0 931.0 +47.0
21 12.08 СЗ 5 10 км 3/0
[Ac trans]
+39.9 +2.0 10 +36 +36 очень
жарко
997.8 932.1
00 13.08 С 2 10 км 3/0
[Ac trans]
+36.9 +5.0 14 +34 +34 очень
жарко
997.6 931.7
03 13.08 штиль 0 10 км ясно +34.5 +6.0 17 +32 +32 жарко 998.0 931.8
06 13.08 штиль 0 10 км ясно +38.1 +4.0 12 +35 +48 очень
жарко
999.4 933.0 +38.1
09 13.08 ЮВ 4 10 км ясно +44.5 -8.0 4 +40 +56 опасность
солнечного
удара
998.3 932.6
12 13.08 ЮВ 4 10 км 5/5 1350 м
[Sc]
+47.0 -17.0 2 +42 +47 опасность
перегрева
996.7 931.0
15 13.08 В 4 10 км 5/5 1350 м
[Sc]
+44.6 -8.0 4 +40 +41 очень
жарко
996.7 930.5
18 13.08 З 6 10 км 3/0
[Ac trans]
+41.7 +6.0 12 +39 +39 очень
жарко
998.4 932.2 +47.0
21 13.08 ЮЗ 4 10 км ясно +37.7 +18.0 32 +41 +41 опасность
перегрева
999.8 933.7
00 14.08 СЗ 2 10 км ясно +37.2 +13.0 24 +37 +37 очень
жарко
998.8 933.0
03 14.08 штиль 0 10 км ясно +35.2 +4.0 14 +32 +32 жарко 999.6 933.3
06 14.08 штиль 0 10 км ясно +38.7 +2.0 10 +35 +48 очень
жарко
1000.5 934.2 +35.2
09 14.08 штиль 0 10 км ясно +43.7 -5.0 5 +40 +68 опасность
солнечного
удара
999.6 933.5
12 14.08 С 3 10 км 6/3 1350 м
[Sc Ac trans]
+46.2 -16.0 2 +41 +47 опасность
перегрева
997.6 931.8
15 14.08 СВ 3 10 км 8/6 1350 м
[Sc Ac trans]
+45.4 -11.0 3 +41 +41 опасность
перегрева
997.1 931.1
18 14.08 СВ 4 10 км 3/3 1350 м
[Sc]
+43.4 -3.0 6 +39 +39 очень
жарко
998.2 932.2 +46.2
21 14.08 СЗ 6 10 км 3/0
[Ac trans]
+41.7 +4.0 10 +39 +39 очень
жарко
998.3 932.7
00 15.08 С 3 10 км ясно +39.0 +6.0 13 +36 +36 очень
жарко
997.5 931.9
03 15.08 штиль 0 10 км 3/0
[Ac trans]
+35.5 +2.0 12 +32 +32 жарко 998.5 932.4
06 15.08 штиль 0 10 км 4/0
[Ac trans]
+40.1 -4.0 6 +36 +46 очень
жарко
999.1 933.2 +35.0
09 15.08 СЗ 3 10 км 3/0
[Ac trans]
+45.0 -7.0 4 +41 +56 опасность
перегрева
996.8 931.4
12 15.08 ЮЗ 3 10 км 6/3 1350 м
[Sc Ac trans]
+45.8 -11.0 3 +41 +47 опасность
перегрева
995.0 929.5
15 15.08 штиль 0 10 км 5/3 1350 м
[Sc Ac trans]
+45.0 -3.0 5 +40 +41 очень
жарко
995.1 929.2
18 15.08 З 6 10 км 5/3 1350 м
[Sc Ac trans]
+41.7 +8.0 13 +39 +39 очень
жарко
996.3 930.4 +46.7
21 15.08 ЮЗ 4 6000 м пыль 3/3 1350 м
[Sc]
+38.9 +13.0 21 +39 +39 очень
жарко
997.2 931.5
00 16.08 З 6 7000 м пыль 3/3 1350 м
[Sc]
+38.2 +8.0 16 +36 +36 очень
жарко
996.4 930.7
03 16.08 Ю 2 6000 м пыль 5/3 1350 м
[Sc Ac trans]
+36.4 +9.0 19 +35 +35 очень
жарко
997.3 931.3
06 16.08 ЮЗ 3 6000 м пыль 8/5 1350 м
[Sc Ac trans]
+37.6 +10.0 19 +36 +39 очень
жарко
998.4 932.1 +36.1
09 16.08 ЮЗ 2 8000 м пыль 5/3 1350 м
[Sc Ac trans]
+42.5 +7.0 12 +40 +52 опасность
солнечного
удара
998.2 932.2
12 16.08 Ю 2 9000 м пыль 6/4 1200 м
[Cu med, cong Ac trans]
+43.7 +9.8 13 +40 +46 очень
жарко
995.4 929.6
15 16.08 СЗ 8 7000 м пыль 6/4 1200 м
[Cb cap Ac trans]
+38.9 +13.0 21 +39 +39 очень
жарко
999.9 932.4
18 16.08 З 3 10 км 3/0
[Ac trans]
+33.1 +11.0 26 +33 +33 жарко 1003.1 935.6 +43.7
21 16.08 ЮЗ 3 10 км 4/0
[Ac trans]
+31.1 +13.0 33 +32 +32 жарко 1002.7 935.6
00 17.08 ЮЗ 5 10 км ясно +31.5 +12.0 30 +32 +32 жарко 1000.0 933.2
03 17.08 ЮЗ 3 10 км ясно +29.9 +14.0 38 +32 +32 жарко 1002.8 934.4
06 17.08 З 3 10 км ясно +33.9 +10.0 23 +33 +42 жарко 1003.6 935.7 +29.0
09 17.08 З 5 10 км ясно +38.9 +8.0 15 +37 +49 очень
жарко
1002.8 935.3
12 17.08 З 4 10 км ясно +41.5 +6.0 12 +39 +49 очень
жарко
1000.5 933.5
15 17.08 З 4 10 км ясно +40.5 +8.0 14 +38 +39 очень
жарко
1000.4 933.1
18 17.08 З 5 10 км ясно +37.6 +13.0 23 +38 +38 очень
жарко
1001.9 934.6 +40.3
21 17.08 СЗ 4 10 км ясно +36.2 +12.0 23 +36 +36 очень
жарко
1002.8 935.8
00 18.08 6000 м гроза без осадков н/о +31.6 +13.0 32 +32 +32 жарко 1004.2 936.8
03 18.08 ЮЗ 3 8000 м пыль 3/3 1350 м
[Sc]
+30.3 +15.0 39 +32 +32 жарко 1003.5 936.0

 

Местоположение метеостанции Madinah (Саудовская Аравия): широта 24.55 долгота 39.70 высота над уровнем моря 636 м.

В архиве по умолчанию представлена погода в Madinah за последнюю неделю. Архивные данные за месяц целиком и за предыдущие месяцы, начиная с января 2011 года, Вы можете получить, выбрав интересующий диапазон дат из раскрывающегося списка и нажав кнопку "Ввод!".

Внимание! Время в таблицах - всемирное. Для получения местного времени необходимо прибавить поправку, которая в Madinah равна 3 ч.

Смотрите также архив погоды в соседних городах и на ближайших метеорологических станциях:

Погода в Yanbu (Саудовская Аравия) (172 км)
Погода в Alula (Саудовская Аравия) (267 км)
Погода в Jeddah King Abdul Aziz (Саудовская Аравия) (321 км)
Погода в Makkah (Саудовская Аравия) (347 км)
Погода в Mina (Саудовская Аравия) (349 км)
Погода в Al Taif (Саудовская Аравия) (352 км)
Погода в Arafat (Саудовская Аравия) (359 км)
Погода в Al-Wajh (Саудовская Аравия) (372 км)
Погода в Hail (Саудовская Аравия) (377 км)
Погода в Shalatin (Египет) (448 км)

Пояснения к столбцам:

Ветер - указаны скорость ветра в м/с - средняя за 10 мин, порывы в срок и между сроками (в фигурных скобках) и направление, откуда дует ветер: С - северный, СВ - северо-восточный, В - восточный, ЮВ - юго-восточный, Ю - южный, ЮЗ - юго-западный, З - западный, СЗ - северо-западный.
Видимость - горизонтальная дальность видимости в метрах или километрах. При видимости от 1 до 10 км при отсутствии осадков обычно наблюдается дымка, при ухудшении видимости до 1 км и менее - туман. В сухую погоду видимость может ухудшаться дымом, пылью или мглою.
Явления - указаны атмосферные явления, наблюдавшиеся в срок или в последний час перед сроком; фигурными скобками обозначены явления, наблюдавшиеся между сроками (за 1-3 часа до срока); квадратными скобками обозначены град или гололедные отложения с указанием их диаметра в мм.
Облачность - указаны через наклонную черту общая и нижняя облачность в баллах и высота нижней границы облаков в метрах; квадратными скобками обозначены формы облаков: Ci - перистые, Cs - перисто-слоистые, Cc - перисто-кучевые, Ac - высококучевые, As - высокослоистые, Sc - слоисто-кучевые, Ns - слоисто-дождевые, Cu - кучевые, Cb - кучево-дождевые. Подробнее классификацию облаков см. в Атласе облаков (PDF).
T - Температура воздуха - температура, измеренная на высоте 2 м над землей.
Td - Температура точки росы - температура, при понижении до которой содержащийся в воздухе водяной пар достигнет насыщения.
f - Относительная влажность воздуха - влажноcть воздуха, измеренная на высоте 2 м над землей.
Te - Эффективная температура - температура, которую ощущает одетый по сезону человек в тени. Характеристика душности погоды. При расчете учитывается влияние влажности воздуха и скорости ветра на теплоощущения человека.
Tes - Эффективная температура на солнце - температура, которую ощущает человек, с поправкой на солнечный нагрев. Характеристика знойности погоды. Зависит от высоты солнца над горизонтом, облачности и скорости ветра. Ночью, в пасмурную погоду, а также при ветре 12 м/с и более поправка равна нулю.
P - Атмосферное давление - приведенное к уровню моря атмосферное давление.
Po - Атмосферное давление - измеренное на уровне метеостанции атмосферное давление.
Tmin - Минимальная температура - минимум температуры воздуха на высоте 2 м над землей.
Tmax - Максимальная температура - максимум температуры воздуха на высоте 2 м над землей.
R - Количество осадков - Количество выпавших осадков за период времени, мм. При наведении курсора мыши на число - период времени, за который выпало указанное количество осадков.
R24 - Количество осадков - Количество выпавших осадков за 24 часа, мм.
S - Снежный покров - Высота снежного покрова, см. При наведении курсора мыши на число - состояние снежного покрова и степень покрытия местности в баллах.